Lapse_Rate
5.7 5.6 5.5 5.2 5.2 5.2 4.9 4.7 4.8 4.6 5.0 5.3 5.2 5.0 4.8 4.6 4.5 4.5 4.8 4.8 4.8 4.7 4.8 4.7 4.6 4.9 5.0 5.0 4.9 4.8 5.0 5.4 5.4 5.6 5.6 5.6 5.5 5.5 5.5 5.6 5.4 5.1 5.1 5.1 5.2
5.9 5.7 5.6 5.2 5.2 5.1 5.0 4.8 4.7 4.7 4.9 5.1 5.1 5.1 4.9 4.4 4.4 4.7 4.6 4.7 4.8 4.7 4.7 4.7 4.7 4.7 4.8 4.9 4.9 4.8 5.1 5.1 5.1 5.4 5.5 5.6 5.4 5.6 5.4 5.4 5.6 5.2 5.2 5.3 5.3
6.1 5.8 5.7 5.5 5.3 5.1 5.0 4.9 4.8 4.9 4.9 5.0 5.1 5.2 5.0 4.5 4.5 4.5 4.5 4.6 4.9 4.6 4.6 5.0 4.6 4.5 4.4 4.5 4.8 4.8 5.0 5.0 5.1 5.3 5.4 5.4 5.4 5.6 5.6 5.5 5.6 5.2 5.1 5.2 5.2
6.5 6.0 5.8 5.8 5.6 5.2 5.2 5.1 4.8 4.8 5.0 5.2 5.0 5.1 5.0 4.6 4.7 4.7 4.6 4.8 4.8 4.7 4.6 4.7 4.5 4.4 4.5 4.6 4.6 4.7 4.9 5.0 5.0 5.3 5.3 5.3 5.3 5.6 5.6 5.6 5.6 5.5 5.3 5.3 5.4
6.6 6.5 6.1 5.9 5.8 5.6 5.2 5.1 5.1 5.0 5.1 5.3 5.1 5.3 4.9 4.7 4.7 4.7 4.7 4.7 4.8 4.7 4.6 4.7 4.4 4.4 4.6 4.6 4.6 4.7 4.9 4.8 4.9 5.2 5.3 5.3 5.1 5.2 5.4 5.7 5.4 5.2 5.5 5.6 5.7
6.7 6.7 6.4 6.2 5.9 5.7 5.5 5.4 5.3 5.1 5.3 5.6 5.4 5.0 4.9 4.9 4.9 4.8 4.9 4.9 4.8 4.8 4.6 4.6 4.4 4.6 4.7 4.8 4.7 4.9 4.9 5.2 5.1 5.1 5.4 5.4 5.2 5.1 5.5 5.5 5.2 5.5 5.6 5.7 5.8
6.6 6.8 6.7 6.3 6.2 5.9 5.7 5.4 5.3 5.5 5.4 5.6 5.7 5.3 5.0 5.3 5.3 5.1 4.9 5.0 4.9 4.9 4.6 4.8 4.9 4.6 4.7 4.9 5.0 4.9 5.2 5.2 5.4 5.3 5.4 5.2 5.3 5.5 5.6 5.4 5.2 5.7 5.7 5.8 5.8
6.5 6.8 6.9 6.5 6.4 6.1 5.9 5.6 5.4 5.3 5.3 5.2 5.5 5.2 5.7 5.1 5.4 5.0 4.9 5.3 5.7 5.1 5.0 4.9 4.8 4.8 5.0 5.0 5.1 5.2 5.2 5.4 5.4 5.6 5.3 5.3 5.5 5.6 5.6 5.3 5.3 5.5 5.6 5.6 5.7
6.4 6.7 6.9 6.7 6.5 6.3 6.0 5.8 5.7 5.6 5.2 5.1 5.1 5.3 5.8 5.3 5.9 5.2 5.1 5.5 5.7 5.3 5.2 5.0 4.9 4.8 4.9 5.0 5.3 5.3 5.4 5.3 5.3 5.3 5.4 5.5 5.5 5.3 5.5 5.2 5.2 5.4 5.4 5.6 5.6
6.2 6.5 6.9 6.9 6.6 6.5 6.2 6.1 5.6 5.6 5.6 5.3 5.0 5.3 5.9 6.1 5.7 5.6 5.4 5.2 5.6 5.7 5.4 5.5 5.1 5.0 5.1 5.0 5.4 5.5 5.3 5.4 5.3 5.5 5.6 5.6 5.7 5.3 5.3 5.1 5.1 5.4 5.7 5.5 5.6
6.2 6.5 6.9 7.0 6.9 6.6 6.3 6.1 6.0 5.8 5.7 5.9 5.6 5.7 5.5 5.7 5.8 5.6 5.6 5.3 5.4 5.3 5.4 5.9 5.3 5.4 5.7 5.3 5.3 5.2 5.4 5.5 5.8 5.4 5.5 5.7 5.6 5.8 5.3 5.4 5.0 5.3 5.6 5.5 5.7
6.0 6.5 6.8 7.1 7.0 6.6 6.3 6.4 6.3 6.0 5.6 5.7 5.6 5.5 5.2 5.7 6.1 5.7 5.8 5.5 5.5 5.8 6.0 5.6 5.6 6.0 5.9 5.7 5.5 5.8 5.8 5.8 5.7 5.7 5.6 5.7 5.8 5.9 5.8 5.7 5.4 5.4 5.7 5.7 5.7
5.8 6.3 6.6 7.2 6.9 6.7 6.7 6.6 6.7 6.1 5.7 5.6 5.6 5.8 5.7 5.5 5.8 5.8 6.0 5.8 5.9 6.2 6.6 6.2 6.2 6.2 6.1 6.0 5.8 6.2 6.5 6.0 5.8 5.5 5.7 5.8 6.0 6.2 5.9 5.6 5.4 5.3 5.8 5.6 5.6
5.6 6.1 6.4 7.1 7.0 7.0 7.0 6.8 6.4 6.4 5.7 5.8 5.8 5.6 5.5 5.2 5.2 5.6 5.9 5.9 5.7 6.0 6.7 5.8 6.5 6.0 5.9 6.2 6.6 6.5 6.4 6.1 5.9 5.8 5.8 5.8 5.4 6.5 6.5 6.3 6.0 6.1 6.3 5.9 5.6
5.7 5.9 6.4 7.1 7.2 7.1 7.2 6.3 6.3 6.4 5.4 6.3 6.0 5.9 5.5 5.4 6.5 5.7 6.1 5.5 5.8 6.2 6.0 5.9 6.5 6.4 6.3 6.4 6.4 6.6 6.4 6.4 6.3 6.0 5.6 5.9 5.5 6.4 6.6 6.5 6.4 6.5 6.1 6.1 5.9
5.6 5.9 6.5 6.2 7.0 7.0 6.5 6.0 6.1 6.1 5.3 6.1 5.8 5.6 5.7 5.9 5.9 6.3 6.3 6.2 6.3 6.1 6.0 6.4 6.3 6.7 6.6 7.1 7.0 7.0 6.7 6.3 6.0 5.8 5.0 6.5 6.0 6.6 6.8 7.2 6.6 6.4 6.3 6.4 6.3
5.7 5.9 6.2 6.8 7.1 6.5 6.3 6.2 5.7 5.8 6.5 6.5 6.1 5.7 5.7 6.5 5.9 6.2 6.8 6.3 6.4 6.1 6.0 6.5 6.7 7.1 7.1 7.3 6.9 6.5 6.3 6.1 5.7 5.0 4.9 6.3 6.1 7.4 6.9 7.1 6.8 6.7 6.6 6.7 6.7
5.4 5.3 6.1 6.8 6.5 6.3 5.9 6.0 5.9 6.2 6.7 6.8 6.6 6.1 5.6 6.4 6.1 6.4 6.5 6.4 6.4 6.8 7.2 7.0 6.9 7.3 7.3 7.4 7.1 6.8 6.6 6.5 5.8 5.4 6.0 6.7 6.7 7.2 7.3 7.3 7.2 6.9 6.4 6.4 6.5
5.3 4.9 5.8 6.4 6.3 5.9 5.5 5.5 5.5 6.7 6.9 6.9 6.5 6.2 5.9 5.8 6.2 6.0 6.2 6.4 6.9 7.0 7.4 7.2 7.1 7.6 7.4 7.7 7.2 6.7 6.6 7.3 6.7 6.6 6.2 6.9 7.3 7.4 7.1 7.0 7.0 7.2 7.0 7.0 6.8
5.0 4.8 6.2 6.2 5.9 5.9 5.1 5.5 6.5 6.7 6.9 6.8 6.9 6.5 6.3 6.1 5.7 5.8 6.0 6.7 6.7 6.9 7.1 7.5 7.3 7.2 7.4 7.1 6.9 6.7 7.2 6.9 6.7 6.0 6.0 6.8 7.1 7.5 7.6 7.3 7.1 7.2 7.2 7.0 7.0
4.8 5.4 6.2 5.8 5.6 5.5 4.8 5.5 6.6 6.5 6.5 6.6 6.9 6.6 6.7 6.4 6.3 6.4 7.0 7.6 7.4 8.0 7.3 7.4 7.4 7.1 7.2 7.1 7.4 6.9 7.0 7.0 6.9 7.1 5.6 5.6 7.0 7.4 7.6 7.5 7.3 7.1 6.9 7.0 7.1
4.8 5.3 5.6 5.3 5.1 4.9 4.8 5.2 6.4 6.6 6.5 6.5 6.7 6.8 6.8 6.8 6.7 6.6 7.3 7.6 8.0 7.8 7.4 7.6 7.4 7.5 7.6 7.4 7.4 7.2 7.0 7.0 7.0 7.1 7.2 6.9 7.1 7.6 7.7 7.5 7.4 7.2 7.0 7.1 7.2
4.5 5.2 4.7 4.9 4.9 4.7 4.6 5.0 6.1 6.4 6.4 6.6 6.8 6.8 6.8 7.2 7.2 7.0 7.2 7.6 7.9 7.6 7.6 7.5 6.9 7.2 7.5 7.6 7.2 6.9 7.4 7.6 7.5 7.1 7.0 6.5 7.3 7.7 7.5 7.3 7.1 7.1 6.9 7.0 7.0
4.6 4.7 4.2 4.0 4.9 5.0 4.8 5.2 5.8 6.3 6.6 6.7 6.6 6.8 6.8 6.9 7.2 7.2 7.4 7.3 7.6 7.5 7.3 7.6 7.6 7.8 7.9 8.1 7.9 7.5 7.5 7.7 7.3 6.9 7.1 7.1 7.6 7.8 7.5 6.9 6.7 6.8 7.0 7.1 7.1
4.6 4.6 4.7 4.0 4.5 4.6 5.2 5.6 6.1 6.4 6.1 6.1 6.1 6.6 6.9 6.9 7.1 7.1 7.4 7.9 7.5 7.8 7.4 7.4 7.5 7.8 7.7 7.5 7.6 8.0 8.0 7.7 7.3 7.4 7.0 7.7 7.3 8.0 7.5 7.2 6.8 6.9 6.8 6.9 7.0
4.7 4.8 4.7 4.8 5.4 4.8 5.0 5.3 6.1 6.3 6.1 6.0 6.1 6.8 6.9 6.8 7.2 7.5 7.8 7.4 7.7 7.7 7.6 7.7 7.8 7.5 7.4 7.5 7.6 7.7 7.5 7.3 7.5 7.7 7.2 7.4 7.4 7.7 7.3 7.1 7.2 7.1 6.9 6.9 7.0
5.1 4.9 5.4 5.4 5.4 4.9 5.2 5.9 5.9 6.2 6.2 6.3 6.6 6.7 6.8 7.1 6.8 7.2 7.4 7.9 7.8 7.8 7.9 7.4 7.4 7.4 7.4 7.8 7.4 6.6 7.5 8.1 8.0 7.6 7.4 7.0 8.0 7.1 7.0 7.2 7.3 7.0 6.8 6.8 6.6
Wind_Speed
12 10 9 9 9 8 7 7 9 10 12 11 11 13 15 16 19 2 4 6 5 11 7 2 3 6 4 3 2 3 3 3 4 3 3 2 3 6 3 4 5 4 4 5 9
14 11 10 9 9 9 8 7 9 10 12 11 11 13 14 15 4 6 9 8 10 12 4 3 4 5 1 2 2 4 2 3 2 2 3 3 5 4 4 6 5 4 6 4 4
14 12 12 11 9 9 8 8 9 10 11 11 12 12 14 12 4 6 8 13 12 10 1 1 7 4 4 3 2 2 4 2 2 3 5 2 5 2 3 3 2 1 1 2 2
14 13 13 12 10 10 9 9 9 9 9 10 12 13 15 1 4 1 6 8 11 6 2 4 3 1 3 2 4 1 5 4 1 3 3 2 2 3 2 5 4 4 3 3 6
15 15 14 14 12 10 10 10 10 9 9 8 12 12 5 1 7 2 8 8 6 5 4 1 3 2 0 3 0 2 4 4 2 7 5 3 6 4 5 6 6 6 9 6 5
16 16 15 15 13 12 11 10 9 9 9 7 12 11 4 3 3 8 8 5 3 3 3 1 1 1 2 3 0 2 3 7 5 5 4 6 4 6 5 7 6 8 7 6 5
17 16 15 15 13 12 11 9 8 10 10 8 11 5 5 9 4 9 8 4 3 3 2 3 4 4 3 6 2 2 4 7 7 5 4 5 4 7 5 6 7 8 7 7 5
18 17 16 15 13 11 9 8 7 10 7 11 7 4 6 4 12 7 4 3 4 2 3 2 6 0 1 2 5 3 1 1 6 8 3 6 7 6 8 8 8 8 7 7 5
18 17 16 15 13 10 8 7 7 10 6 11 1 4 6 0 4 6 7 4 3 2 3 2 3 3 1 1 5 2 4 3 2 7 4 4 4 3 8 8 9 9 8 7 6
18 18 17 16 13 10 7 5 1 7 3 8 5 2 6 5 4 5 7 6 4 5 2 2 2 1 2 3 4 4 3 3 3 5 5 5 8 6 7 7 9 9 9 8 6
19 18 17 17 14 12 6 3 3 2 3 8 8 5 3 1 1 3 6 6 5 4 5 4 3 5 10 7 12 4 2 3 4 3 5 7 7 10 11 6 8 8 9 9 7
20 20 19 16 15 14 2 4 5 4 4 13 12 11 8 2 2 3 7 6 6 6 4 4 7 9 8 5 2 3 1 5 5 2 2 5 9 9 7 8 9 12 9 11 7
23 21 19 18 14 6 4 6 7 7 1 4 12 9 5 7 5 4 10 5 5 6 7 7 6 8 4 3 3 3 3 4 6 2 4 2 7 6 5 5 6 11 11 11 11
25 23 23 22 5 5 4 13 15 4 1 6 6 7 8 3 4 6 4 7 4 12 7 7 11 8 4 4 5 3 3 4 4 3 3 3 5 6 6 7 7 13 12 13 11
26 25 29 28 5 7 7 17 4 3 3 3 6 1 7 11 5 6 4 4 8 5 7 7 5 5 4 6 5 6 2 1 1 1 3 3 1 6 6 5 7 10 10 12 14
27 28 31 12 2 5 12 10 3 4 7 4 4 7 8 7 1 3 4 3 4 3 1 6 2 4 5 2 1 4 2 3 3 3 3 7 7 5 5 10 5 6 8 14 13
28 29 23 12 4 11 11 4 3 5 3 5 5 5 13 9 5 4 6 6 6 4 5 4 4 3 4 3 4 2 4 1 1 1 6 2 5 8 9 7 16 16 11 11 13
28 28 20 9 4 8 4 4 5 9 6 3 5 7 6 7 7 6 6 7 5 4 4 5 5 10 5 7 6 6 6 4 5 3 4 5 5 6 3 7 12 14 15 15 13
29 9 8 9 10 2 8 10 9 7 9 7 5 5 5 6 6 6 6 5 9 9 7 7 5 2 3 2 8 4 5 4 1 2 2 4 5 6 3 6 7 10 10 15 14
10 10 11 12 8 3 10 10 7 4 6 5 6 7 8 11 6 13 13 9 10 15 8 2 1 1 1 2 1 4 1 2 1 3 4 5 4 4 4 6 5 9 14 12 11
7 7 7 11 4 2 13 9 7 2 5 5 5 7 6 7 8 9 7 8 18 13 15 6 4 0 3 6 8 3 2 3 3 5 4 1 5 4 7 8 9 8 9 12 14
9 6 8 9 4 5 8 7 5 5 2 2 3 3 8 9 8 7 9 5 4 9 13 7 4 4 8 3 4 5 7 6 4 4 3 4 5 3 3 9 10 10 9 10 12
10 3 2 8 9 11 5 8 8 7 5 5 5 5 1 7 5 6 6 1 1 5 10 7 4 2 1 1 1 4 5 5 2 3 5 4 5 3 5 1 5 7 7 8 9
5 5 2 2 2 9 12 18 5 6 4 4 4 3 2 4 1 8 3 0 2 3 4 5 4 6 6 4 4 4 6 6 6 3 3 7 5 7 5 4 5 6 7 9 10
2 4 7 15 17 5 19 11 15 7 5 9 4 5 6 5 4 4 3 2 4 1 2 5 5 3 3 5 5 5 4 7 7 8 6 11 8 7 2 8 8 7 7 11 12
5 5 4 12 17 16 12 12 20 14 14 6 6 9 7 4 6 8 7 4 5 2 5 1 3 3 2 5 5 4 7 7 7 8 7 8 14 8 3 5 4 5 11 14 14
3 1 10 13 21 16 12 22 15 15 6 9 6 4 5 6 6 3 5 5 9 8 6 6 4 2 4 2 2 4 9 12 7 6 8 9 14 4 5 6 5 7 8 8 9
Wind_Direction
232 233 240 251 264 273 283 301 312 307 307 310 313 313 316 322 317 130 245 231 196 172 164 261 232 262 321 304 7 46 47 322 300 356 116 64 81 1 360 25 346 337 126 164 154
231 233 239 241 251 267 279 284 294 299 301 308 309 313 317 328 288 250 244 176 151 160 168 198 249 262 287 238 320 87 96 259 341 28 48 74 76 8 41 352 349 55 44 85 142
226 232 239 244 242 252 261 271 279 288 297 307 307 313 316 332 290 247 239 177 168 173 224 246 244 188 211 148 231 206 203 269 11 104 54 36 20 31 83 300 230 159 95 74 152
231 234 243 244 240 245 249 263 269 275 288 306 306 314 313 225 220 294 135 155 154 155 323 318 312 283 220 192 222 83 287 297 259 68 47 2 342 323 217 230 154 100 119 61 38
225 229 236 241 246 243 247 250 257 273 286 306 303 321 324 217 254 201 151 143 133 138 226 250 290 253 15 329 13 182 266 272 283 162 185 211 252 235 253 181 146 88 60 49 29
220 225 231 236 237 237 245 251 263 275 289 304 302 323 253 236 192 154 164 147 191 178 254 240 9 199 20 310 120 191 318 286 282 247 228 183 249 153 281 166 130 103 93 60 50
221 216 225 233 232 234 235 242 265 281 290 304 301 304 271 231 127 158 180 195 198 199 270 265 96 57 334 325 274 324 303 312 256 231 212 144 296 222 198 156 144 121 106 76 47
218 217 220 227 225 231 234 244 258 272 284 279 297 273 251 247 251 170 184 258 232 214 129 8 61 327 187 314 347 269 72 307 311 135 187 109 273 223 193 164 139 136 112 88 48
212 215 214 218 214 215 218 241 263 281 269 285 294 202 260 223 193 199 167 190 177 85 61 67 70 181 33 66 354 320 249 207 247 191 142 181 252 263 190 170 157 145 126 105 69
208 211 213 209 201 195 206 223 34 281 251 257 258 4 277 228 195 186 194 168 154 117 65 142 94 136 2 95 237 228 251 319 207 238 172 196 253 223 220 168 166 151 132 110 102
206 212 214 204 184 181 140 123 43 272 226 193 190 216 20 12 345 179 177 142 126 122 190 206 117 210 235 211 246 225 242 303 283 231 170 232 249 248 219 195 148 163 138 126 130
199 208 204 193 179 179 164 186 212 187 230 233 253 242 260 93 331 248 120 143 159 188 194 359 223 225 245 208 264 295 321 281 297 222 155 257 263 259 184 193 185 162 156 140 137
190 201 187 173 165 149 202 213 306 20 257 238 209 215 216 152 213 242 146 177 165 187 194 186 228 204 195 197 238 240 206 250 222 249 269 315 296 271 192 175 183 161 157 145 149
183 184 171 144 130 157 223 235 266 3 329 261 190 242 175 182 226 215 203 154 219 197 204 228 242 211 186 196 183 253 213 248 245 67 253 127 283 299 197 190 158 160 162 155 151
178 169 158 160 155 168 196 212 209 65 288 226 160 104 173 164 171 199 184 189 202 204 158 236 186 158 174 207 197 230 177 231 268 210 351 273 200 257 136 201 164 177 174 167 162
173 167 167 191 264 200 199 161 93 71 243 168 148 177 132 204 163 103 131 112 153 178 285 238 251 132 191 92 152 134 87 20 31 84 290 221 172 267 187 201 175 183 186 171 165
168 167 170 176 199 181 143 135 98 185 235 191 178 170 169 175 199 149 154 164 163 160 215 216 210 151 139 103 16 64 76 1 294 192 230 310 149 251 223 201 191 184 181 174 165
166 166 187 204 237 152 132 117 178 193 212 182 142 143 189 142 219 166 148 186 245 156 150 169 279 169 194 169 181 195 170 178 230 202 266 346 237 255 299 211 196 188 178 169 170
154 170 185 233 241 92 167 185 191 205 183 145 92 144 203 209 165 146 203 207 204 192 176 178 240 44 72 139 136 208 197 190 255 264 109 238 281 314 354 51 147 168 164 181 176
164 165 196 200 145 91 186 200 196 152 116 122 152 173 185 194 156 172 181 219 214 201 202 207 71 289 349 68 167 164 220 133 5 233 248 284 248 242 251 233 167 172 184 183 176
150 154 185 152 90 105 199 190 187 139 118 146 185 177 192 174 161 176 203 240 200 191 192 188 129 323 104 212 186 149 222 215 160 160 186 269 273 238 212 209 203 197 191 180 182
148 164 161 149 145 189 202 192 149 140 62 120 121 206 180 168 175 191 213 196 180 164 189 183 133 183 201 270 192 184 193 173 146 244 225 149 274 244 231 198 188 200 186 185 183
148 112 18 170 179 188 163 222 185 149 162 173 200 234 164 159 169 196 204 318 177 130 157 170 201 142 341 339 318 215 205 193 148 111 215 132 262 291 311 22 227 201 188 177 154
143 136 149 107 232 168 184 201 191 160 166 129 207 172 136 144 216 184 152 340 81 84 111 106 164 176 189 195 138 195 208 196 161 171 177 218 261 278 282 258 234 206 182 166 154
157 173 172 186 202 184 189 175 187 179 179 180 194 181 180 167 146 145 131 108 33 81 102 144 196 231 218 226 172 175 191 206 195 220 186 256 208 250 213 232 228 214 152 143 149
149 149 162 165 185 197 200 200 188 188 174 194 153 196 209 188 187 180 131 166 182 147 165 195 212 174 229 191 207 214 222 220 224 242 243 248 268 190 151 116 18 182 166 169 171
211 294 150 157 180 192 209 199 196 181 188 182 176 163 203 221 139 116 130 160 155 145 165 152 168 124 244 169 58 298 215 218 220 215 207 219 247 177 188 163 160 128 170 196 178